Starlink 2622

operational
NORAD ID: 48360 Int'l Des: 2021-038 Owner: SPXS Country: US Constellation: starlink
LEOCIRCULARSTARLINK_TYPE

关于 Starlink 2622

正在加载描述...

实时位置

正在加载3D地球...

即将过境

高度历史

Altitude vs Time

uPlot chart will show altitude changes over time

两行轨道根数

1 48360U 21038H 25296.30464009 .00026416 00000-0 17824-2 0 9998
2 48360 53.0529 258.3592 0001439 90.9689 269.1465 15.06468932246312
Epoch: Oct 23, 2025 • Age: 34 hours

当前状态

高度 552.1 km
速度 7.59 km/s
星下点 52.33°N, 65.22°E
发射日期 May 4, 2021
运行时间 4.4 years
类型 internet

技术详情

分类 Payload
质量 260.00 kg
干质量 248.00 kg
总质量 260.00 kg
长度 0.20 m
直径 2.80 m
跨度 9.00 m
形状 Box + pan
制造商 SPXS
平台类型 Starlink
阶段状态 In Orbit
所有者/国家 SPXS/US

大型星座

Loading constellations...